Wind_Speed
11 13 13 12 10 9 8 7 5 4 3 1 1 1 3 4 5 5 7 8 11 13 13 17 17 16 15 12 9 7 3 12 13 12 11 11 8 7 10 13 8 5 8 14 7
10 11 13 13 12 10 9 7 6 4 3 2 1 2 3 5 5 5 6 7 8 12 14 17 14 16 6 4 3 6 7 8 8 9 13 12 7 9 10 9 9 13 14 8 9
9 11 12 14 14 13 10 8 7 5 3 2 1 2 6 7 5 3 8 11 11 10 15 14 16 14 5 7 2 5 5 7 8 10 10 10 7 9 7 5 6 12 9 9 11
7 9 12 14 15 14 13 11 8 6 5 2 1 5 9 11 2 5 10 8 6 7 12 14 11 4 6 8 5 5 6 6 9 10 10 9 9 8 4 8 8 12 9 10 13
6 8 10 13 15 16 15 13 11 8 6 4 2 5 7 4 3 9 11 6 5 7 9 2 6 4 5 5 3 8 8 9 9 11 10 10 8 7 5 8 10 13 11 13 15
6 7 9 11 14 16 16 15 14 11 8 6 3 5 7 3 4 7 11 8 7 8 1 1 2 2 3 1 5 4 6 8 8 9 9 9 6 8 7 8 10 13 15 14 14
5 7 9 10 12 14 16 17 16 14 11 8 6 6 8 5 7 8 9 8 5 5 1 3 2 1 1 2 2 4 8 8 7 7 4 8 6 5 8 10 10 13 14 14 14
2 5 8 10 11 12 14 16 17 17 14 11 9 6 5 7 6 8 9 8 4 3 4 3 2 4 5 5 4 7 12 8 7 7 4 7 9 7 8 10 10 12 13 15 15
2 3 6 9 10 12 12 13 16 17 17 15 12 9 9 10 8 8 9 9 7 5 2 0 1 2 6 5 3 5 5 12 12 7 5 7 10 6 7 10 11 12 13 14 16
4 2 4 8 10 10 11 11 12 16 18 17 16 11 15 11 11 8 9 10 11 8 6 3 4 5 3 4 5 1 8 6 9 9 11 9 8 5 10 11 12 13 15 15 17
5 4 3 6 10 10 10 10 6 9 19 17 13 14 7 14 12 11 8 8 9 10 7 7 9 4 6 2 4 7 9 10 7 6 10 12 14 12 13 13 14 15 17 16 16
6 6 5 5 9 10 10 13 12 15 6 19 17 20 13 10 10 14 12 11 12 11 8 8 10 9 3 5 7 7 3 4 7 5 11 11 11 12 13 15 17 16 17 18 17
7 7 7 5 8 10 11 11 10 12 7 13 20 22 19 23 14 15 15 14 12 12 14 15 10 5 6 6 8 5 1 2 3 6 9 8 12 18 13 15 15 16 18 18 18
9 9 8 7 6 9 10 9 8 7 5 15 15 19 21 17 22 14 18 15 14 16 15 16 13 9 10 9 8 5 5 5 4 9 4 7 7 16 14 16 17 17 17 18 20
11 10 9 9 6 10 12 11 9 7 7 13 12 12 19 22 10 22 20 19 17 16 13 16 14 13 14 9 8 5 4 5 5 9 10 9 9 5 6 13 17 18 18 17 18
11 12 11 11 10 7 11 11 10 6 8 9 12 15 18 21 18 10 19 20 17 18 17 21 8 13 15 10 9 9 8 9 10 13 8 27 4 11 19 4 10 16 20 18 18
13 13 13 12 13 10 13 13 8 14 5 9 10 14 19 19 22 16 16 23 23 18 19 19 22 18 18 16 13 12 14 22 14 13 7 16 19 10 2 2 7 13 20 19 18
15 14 14 14 14 13 16 12 13 9 12 5 7 13 19 18 21 18 17 22 22 23 19 21 19 23 21 21 19 13 19 22 9 2 11 26 3 6 5 4 5 14 19 16 16
16 15 15 15 15 16 20 19 17 12 8 8 10 13 17 20 14 20 19 18 21 21 23 14 14 7 15 20 19 19 20 16 20 21 12 10 8 12 10 8 10 18 17 16 16
15 14 17 16 16 19 20 23 15 12 6 9 13 13 16 17 19 18 20 15 19 21 20 19 16 10 13 16 18 18 17 15 14 14 13 1 15 9 9 8 13 14 13 14 14
13 9 15 16 18 23 24 21 18 11 11 9 12 12 15 14 17 19 18 15 11 17 19 19 16 12 11 15 20 15 20 20 22 21 5 7 8 8 8 11 14 14 14 14 12
12 8 16 17 20 20 23 21 19 15 12 11 10 10 11 13 13 18 17 13 12 13 16 18 16 19 13 11 12 12 14 17 21 16 17 3 6 13 10 13 13 13 14 14 13
10 12 18 18 15 19 19 21 21 18 17 14 13 11 8 11 13 17 16 10 9 12 11 12 17 19 20 19 13 16 14 14 18 18 10 9 16 11 10 12 12 12 15 19 21
13 7 11 19 20 15 20 22 21 19 19 19 18 15 13 13 12 8 19 13 13 15 17 16 16 20 18 15 9 18 17 14 15 13 13 18 22 18 13 9 5 8 16 18 22
11 9 12 8 17 18 18 16 22 20 19 14 22 21 17 17 17 17 14 17 13 15 15 13 19 19 21 20 11 16 13 17 17 19 21 9 7 20 15 8 2 1 5 12 17
12 15 13 10 11 15 17 18 17 17 20 15 17 19 19 25 20 18 18 20 17 17 17 17 19 16 19 17 16 19 21 21 22 17 21 18 6 13 11 4 6 5 8 10 13
10 13 16 9 11 12 14 16 14 16 16 15 14 13 19 20 21 20 16 13 12 20 16 20 19 20 22 22 20 18 21 23 23 23 20 17 21 16 13 12 11 12 11 13 17
Wind_Direction
200 200 198 197 197 191 187 181 177 173 167 162 95 83 89 113 120 103 92 104 101 103 94 84 82 83 81 71 80 53 93 160 150 138 144 138 132 114 121 117 127 134 141 157 138
207 208 205 202 202 203 198 192 184 175 166 155 88 89 112 139 136 123 116 115 95 101 98 87 79 81 58 47 46 44 333 120 125 133 147 135 131 123 124 129 105 129 153 151 134
213 215 214 211 207 206 208 205 195 184 179 169 109 104 130 132 109 236 135 107 92 93 91 92 84 70 108 72 311 43 92 133 121 132 148 145 140 121 135 131 158 159 158 149 143
210 219 220 217 213 211 209 213 208 193 187 184 132 131 136 116 68 209 155 126 96 84 89 81 71 356 54 91 75 55 95 105 148 134 146 143 149 135 135 131 164 166 153 143 154
211 217 222 223 218 215 214 215 218 209 197 188 158 149 149 89 272 163 176 168 132 101 92 55 30 354 99 89 74 97 92 107 128 125 138 143 129 163 141 134 149 159 160 158 160
218 218 219 223 226 221 216 216 220 217 212 202 184 170 154 109 194 165 168 175 156 105 99 68 304 44 75 119 66 120 121 123 129 139 145 144 155 135 176 152 157 163 167 169 171
232 220 220 220 225 225 220 217 215 221 215 213 207 189 179 235 186 177 177 167 176 145 336 303 303 346 208 183 148 165 142 152 155 146 166 170 185 165 179 168 168 168 174 179 180
273 239 219 218 219 226 223 217 215 214 217 216 214 204 180 205 196 192 188 199 206 172 124 89 93 284 242 226 200 212 210 131 167 176 196 190 260 182 183 176 183 177 181 185 187
295 268 232 218 216 221 226 218 217 216 215 215 215 215 242 232 222 204 194 197 219 230 152 117 188 254 219 237 331 285 227 159 191 203 214 207 183 161 195 193 194 191 190 190 193
290 290 248 220 216 214 219 218 217 218 216 215 218 215 238 235 227 218 203 205 218 238 263 240 273 259 271 298 205 262 250 289 196 211 209 217 228 205 217 208 206 205 201 197 198
281 282 272 225 213 211 207 204 218 246 225 205 237 212 184 210 219 221 220 219 216 229 230 244 249 182 251 209 319 305 297 284 220 217 225 245 248 225 221 213 213 209 211 204 200
268 261 260 242 216 210 203 190 224 203 230 225 213 200 199 204 213 216 223 209 213 220 221 220 241 196 255 301 300 295 71 267 250 235 222 225 229 230 219 221 208 212 212 206 201
260 255 248 245 219 207 204 203 206 214 232 234 223 224 225 229 218 227 222 219 219 230 227 243 271 268 250 284 295 311 121 216 182 233 231 246 260 209 213 208 198 205 210 205 204
256 252 247 239 226 204 200 198 192 200 250 224 217 225 213 223 226 216 227 213 228 238 238 242 246 240 248 260 280 147 334 289 291 280 33 263 28 236 201 197 202 195 198 198 201
254 247 243 233 226 197 200 189 176 165 266 160 192 196 202 206 232 218 219 213 227 234 237 242 236 237 241 232 272 338 282 318 293 258 262 282 232 93 215 193 204 200 204 200 199
252 245 238 231 224 214 191 178 170 210 250 191 208 207 192 209 202 205 214 214 230 236 240 240 256 240 235 254 246 281 278 251 222 179 292 284 161 320 267 178 200 202 202 199 203
252 242 233 228 221 206 187 171 204 236 193 210 208 197 195 203 199 218 210 214 218 223 237 241 243 249 235 249 246 250 261 255 219 206 158 236 265 155 326 221 209 200 191 192 196
247 242 233 226 216 201 186 184 238 229 229 208 199 195 198 195 207 215 217 220 222 227 249 230 230 232 234 232 247 252 270 291 295 244 175 249 121 95 81 66 145 166 176 183 184
247 239 234 221 214 204 188 207 217 236 232 215 196 203 206 212 218 216 221 227 225 224 239 246 252 247 219 233 233 255 254 273 289 281 233 158 88 97 79 88 124 153 169 174 177
244 238 235 221 214 203 202 218 225 232 212 222 220 215 218 212 214 226 217 234 230 226 229 235 272 239 242 227 232 246 254 269 243 272 276 151 131 135 96 120 137 152 163 170 181
237 228 232 220 214 205 213 221 230 257 229 232 230 241 235 230 225 228 223 225 231 222 223 227 236 232 220 219 226 210 238 251 267 271 258 220 68 92 150 150 149 158 175 180 184
222 213 240 218 214 216 223 219 233 229 246 230 242 234 245 237 232 228 222 229 210 209 216 221 237 234 219 217 232 246 269 222 236 245 270 342 171 171 174 160 155 171 169 171 182
183 243 229 215 210 223 234 230 230 239 231 234 238 237 238 234 241 231 221 202 204 203 220 229 227 246 232 224 243 232 239 247 240 257 274 286 142 169 158 147 161 164 190 203 207
210 215 240 224 212 235 228 233 230 240 229 230 237 236 243 241 233 240 225 218 227 230 234 228 236 237 243 234 252 201 228 226 257 252 241 235 156 158 155 147 162 188 199 201 205
201 210 207 235 227 230 232 236 237 234 240 238 239 238 237 244 238 231 234 226 232 227 235 224 243 251 259 268 269 260 222 226 236 258 281 357 207 154 146 143 137 233 235 228 225
196 216 221 220 225 216 228 229 233 230 233 242 247 236 242 239 239 246 238 236 233 234 229 235 247 253 265 255 256 256 255 258 261 244 252 265 130 129 151 214 264 272 296 281 264
231 222 225 232 231 232 229 232 234 224 232 239 240 237 239 241 237 242 240 241 234 223 235 233 245 246 253 255 264 242 252 255 255 250 249 250 263 229 249 226 236 257 264 272 274
Height
3173 3175 3177 3179 3181 3182 3184 3185 3186 3186 3187 3187 3187 3187 3187 3187 3187 3188 3187 3188 3187 3186 3185 3184 3184 3185 3185 3183 3185 3184 3186 3185 3187 3188 3191 3192 3194 3194 3194 3194 3196 3197 3197 3197 3196
3173 3174 3177 3179 3181 3182 3184 3185 3186 3187 3187 3188 3188 3188 3188 3188 3188 3189 3189 3189 3188 3188 3187 3186 3187 3187 3190 3191 3190 3189 3186 3188 3188 3189 3191 3193 3195 3195 3197 3197 3197 3198 3196 3196 3197
3173 3174 3176 3178 3180 3182 3183 3185 3187 3188 3188 3188 3189 3189 3189 3189 3191 3190 3190 3190 3190 3189 3188 3189 3189 3190 3192 3192 3191 3190 3188 3189 3190 3191 3193 3194 3195 3196 3198 3199 3198 3198 3195 3196 3197
3173 3174 3175 3177 3179 3181 3183 3184 3186 3188 3189 3189 3189 3190 3190 3191 3195 3190 3191 3191 3191 3191 3190 3191 3193 3190 3193 3195 3194 3192 3191 3190 3191 3193 3194 3195 3196 3198 3199 3199 3199 3197 3196 3197 3199
3173 3174 3174 3175 3178 3180 3182 3184 3186 3188 3189 3190 3190 3191 3191 3192 3193 3191 3192 3192 3192 3192 3192 3195 3197 3196 3196 3196 3195 3193 3193 3193 3193 3194 3195 3196 3197 3198 3199 3199 3199 3197 3197 3199 3202
3173 3173 3174 3174 3176 3178 3181 3183 3185 3187 3189 3190 3191 3191 3192 3195 3193 3192 3192 3193 3193 3193 3196 3197 3199 3198 3198 3196 3195 3195 3194 3194 3195 3196 3197 3197 3198 3198 3200 3199 3199 3198 3199 3201 3204
3172 3173 3173 3174 3174 3176 3179 3181 3184 3186 3188 3189 3190 3191 3192 3194 3192 3193 3193 3194 3194 3195 3200 3198 3196 3198 3198 3197 3196 3195 3195 3194 3195 3196 3196 3197 3198 3198 3198 3199 3199 3199 3200 3202 3204
3171 3171 3172 3173 3174 3174 3176 3179 3182 3185 3187 3188 3190 3191 3193 3191 3191 3192 3193 3195 3195 3196 3196 3196 3195 3196 3198 3197 3196 3192 3191 3194 3195 3195 3196 3197 3195 3197 3198 3199 3199 3200 3201 3202 3203
3171 3171 3170 3172 3173 3173 3174 3177 3180 3183 3185 3188 3190 3191 3194 3191 3191 3192 3193 3195 3196 3197 3197 3197 3196 3197 3197 3196 3195 3195 3193 3189 3193 3194 3194 3195 3194 3195 3197 3198 3199 3200 3200 3201 3203
3170 3170 3170 3170 3172 3173 3174 3176 3178 3180 3183 3186 3188 3192 3190 3190 3190 3191 3193 3195 3197 3198 3198 3197 3198 3197 3195 3197 3195 3193 3192 3188 3188 3191 3192 3192 3193 3193 3195 3196 3197 3199 3200 3200 3202
3169 3169 3169 3169 3170 3172 3174 3176 3181 3182 3180 3185 3187 3189 3187 3188 3189 3191 3192 3193 3196 3199 3199 3198 3197 3197 3194 3194 3193 3191 3187 3187 3189 3187 3190 3188 3188 3188 3190 3193 3194 3196 3198 3199 3201
3168 3168 3168 3168 3169 3171 3172 3175 3176 3177 3180 3179 3182 3184 3185 3186 3188 3189 3191 3194 3195 3197 3197 3199 3193 3192 3194 3193 3191 3189 3188 3188 3186 3185 3187 3185 3187 3185 3187 3188 3191 3193 3195 3197 3199
3167 3166 3167 3167 3168 3170 3172 3173 3175 3176 3178 3179 3178 3180 3181 3185 3188 3189 3189 3191 3194 3195 3194 3193 3193 3192 3194 3192 3189 3189 3188 3188 3188 3186 3185 3185 3184 3181 3185 3185 3187 3190 3193 3195 3197
3165 3165 3165 3166 3169 3169 3171 3172 3174 3176 3178 3176 3174 3175 3180 3182 3184 3188 3186 3192 3192 3193 3192 3191 3191 3192 3192 3190 3189 3187 3188 3186 3186 3184 3183 3182 3192 3170 3180 3183 3184 3186 3189 3191 3194
3163 3163 3164 3165 3166 3167 3169 3171 3174 3176 3171 3171 3173 3173 3175 3178 3182 3183 3185 3188 3189 3190 3192 3188 3188 3189 3189 3189 3189 3188 3187 3185 3185 3182 3183 3177 3174 3179 3180 3180 3181 3183 3187 3190 3192
3160 3161 3162 3163 3164 3166 3168 3171 3174 3179 3167 3167 3168 3168 3173 3175 3179 3181 3182 3185 3188 3188 3187 3186 3186 3186 3186 3187 3188 3187 3185 3182 3179 3177 3179 3177 3175 3190 3174 3177 3176 3180 3185 3188 3191
3157 3158 3159 3160 3162 3164 3167 3171 3176 3168 3165 3165 3166 3167 3170 3172 3176 3178 3179 3181 3183 3185 3183 3184 3183 3184 3186 3186 3185 3185 3181 3171 3172 3173 3184 3171 3169 3174 3177 3176 3176 3178 3182 3187 3190
3154 3155 3156 3158 3160 3162 3165 3171 3170 3162 3162 3162 3164 3166 3168 3170 3173 3174 3176 3177 3178 3179 3177 3175 3176 3176 3180 3182 3180 3183 3176 3170 3172 3161 3179 3169 3167 3173 3174 3173 3172 3177 3182 3186 3189
3150 3151 3152 3155 3157 3160 3164 3166 3163 3162 3161 3162 3163 3164 3165 3167 3169 3171 3172 3172 3173 3175 3176 3172 3172 3172 3173 3177 3180 3177 3175 3172 3166 3160 3158 3158 3170 3171 3172 3175 3175 3178 3182 3186 3189
3146 3148 3149 3151 3154 3157 3160 3159 3160 3160 3160 3161 3160 3161 3160 3163 3165 3167 3168 3168 3169 3171 3173 3173 3172 3172 3173 3176 3176 3176 3173 3171 3169 3162 3157 3164 3159 3172 3172 3178 3178 3180 3184 3186 3189
3143 3146 3145 3148 3151 3152 3153 3156 3158 3158 3159 3160 3159 3158 3159 3158 3160 3162 3164 3165 3166 3168 3170 3171 3172 3169 3171 3171 3168 3172 3172 3171 3165 3159 3156 3161 3160 3171 3175 3179 3180 3182 3184 3186 3189
3140 3145 3142 3144 3147 3148 3151 3154 3156 3157 3157 3158 3158 3157 3157 3157 3157 3158 3160 3161 3162 3165 3166 3168 3167 3166 3165 3165 3167 3167 3164 3165 3163 3161 3155 3154 3165 3169 3176 3178 3179 3179 3180 3184 3187
3137 3141 3138 3140 3144 3147 3149 3150 3152 3154 3155 3156 3156 3156 3156 3156 3157 3156 3158 3158 3161 3164 3165 3166 3165 3162 3162 3163 3164 3165 3164 3162 3159 3156 3155 3152 3170 3172 3173 3173 3174 3174 3176 3178 3181
3134 3139 3136 3136 3139 3142 3145 3146 3148 3149 3150 3152 3153 3154 3155 3155 3155 3154 3156 3156 3159 3162 3162 3163 3161 3158 3153 3155 3155 3157 3161 3161 3159 3155 3154 3153 3159 3163 3167 3168 3170 3172 3174 3175 3176
3131 3135 3132 3136 3137 3139 3142 3143 3144 3146 3146 3148 3149 3150 3152 3153 3152 3153 3154 3154 3156 3157 3159 3161 3159 3157 3154 3152 3155 3154 3155 3158 3159 3159 3154 3152 3154 3156 3159 3162 3167 3170 3171 3173 3174
3126 3128 3130 3132 3132 3136 3137 3138 3140 3142 3144 3145 3145 3146 3148 3149 3150 3150 3151 3151 3153 3155 3156 3157 3156 3156 3154 3154 3153 3155 3155 3156 3155 3156 3158 3156 3158 3155 3162 3159 3165 3167 3168 3169 3171
3123 3124 3126 3130 3132 3133 3134 3136 3137 3139 3140 3141 3142 3143 3143 3145 3144 3145 3146 3146 3147 3149 3152 3154 3153 3153 3151 3151 3148 3150 3152 3152 3153 3154 3155 3158 3157 3152 3156 3160 3162 3164 3165 3166 3167